GW4151 Weather Reports


time (UTC)temp
C
wind
direction
speed
KPH
gust
KPH
rain 1hr
cm
rain 24hr
cm
rain mn
cm
humidity
%
barometer
mb
20260504045941 11 187 3.2 9.7 0.00 0.00 0.00 79 985.5
20260504044437 11 239 4.8 12.9 0.00 0.00 0.00 79 985.7
20260504042934 11 206 9.7 11.3 0.00 0.00 0.00 78 985.6
20260504041429 11 193 4.8 6.4 0.00 0.00 0.00 78 985.6
20260504035925 11 183 3.2 14.5 0.00 0.00 0.00 76 986.0
20260504034423 11 154 4.8 14.5 0.00 0.00 0.00 76 986.0
20260504032920 11 183 8.0 22.5 0.00 0.00 0.00 75 986.1
20260504031417 11 168 11.3 16.1 0.00 0.00 0.00 75 986.1
20260504025911 11 153 6.4 12.9 0.00 0.00 0.00 75 986.2
20260504024408 11 152 6.4 14.5 0.00 0.00 0.00 75 986.1
20260504022908 11 170 4.8 11.3 0.00 0.00 0.00 74 986.4
20260504021405 11 193 9.7 12.9 0.00 0.00 0.00 73 986.3
20260504015900 11 153 9.7 12.9 0.00 0.00 0.00 72 986.4
20260504014355 11 92 6.4 12.9 0.00 0.00 0.00 71 986.1
20260504012852 11 182 6.4 11.3 0.00 0.00 0.00 70 986.2
20260504011350 12 148 8.0 14.5 0.00 0.00 0.00 69 986.2
20260504005850 12 139 4.8 9.7 0.00 0.00 0.00 66 985.8
20260504004348 12 162 4.8 24.1 0.00 0.00 0.00 65 986.1
20260504002848 13 130 6.4 14.5 0.00 0.00 0.00 63 985.9
20260504001346 13 170 11.3 17.7 0.00 0.00 0.00 61 986.2
20260503235843 14 140 9.7 12.9 0.00 0.00 0.00 60 986.5
20260503234341 14 167 6.4 20.9 0.00 0.00 0.00 60 986.5
20260503232837 14 181 14.5 17.7 0.00 0.00 0.00 60 986.5
20260503231335 14 125 6.4 14.5 0.00 0.00 0.00 60 986.9
20260503225832 14 179 9.7 14.5 0.00 0.00 0.00 59 987.1
20260503224327 14 150 4.8 11.3 0.00 0.00 0.00 59 987.4
20260503222824 14 176 16.1 17.7 0.00 0.00 0.00 58 987.7
20260503221319 13 163 6.4 24.1 0.00 0.00 0.00 59 988.1
20260503215814 13 203 16.1 24.1 0.00 0.00 0.00 58 988.4
20260503214312 14 232 9.7 20.9 0.00 0.00 0.00 57 988.5
20260503212809 13 207 3.2 16.1 0.00 0.00 0.00 63 988.5
20260503211307 12 148 4.8 14.5 0.00 0.00 0.00 66 988.4
20260503205805 12 220 6.4 11.3 0.00 0.00 0.00 66 988.8
20260503204302 11 140 3.2 9.7 0.00 0.00 0.00 67 988.9
20260503202759 11 187 3.2 24.1 0.00 0.00 0.00 68 989.1
20260503201258 11 147 4.8 17.7 0.00 0.00 0.00 72 989.5
20260503195755 10 65 9.7 22.5 0.00 0.00 0.00 75 990.2
20260503194250 9 129 9.7 22.5 0.00 0.00 0.00 78 990.1
20260503192750 10 257 8.0 27.4 0.00 0.00 0.00 78 990.5
20260503191245 11 186 19.3 40.2 0.00 0.00 0.00 65 990.7
20260503185742 12 273 24.1 35.4 0.00 0.00 0.00 61 991.0
20260503184241 13 203 16.1 27.4 0.00 0.00 0.00 58 990.7
20260503182738 15 218 22.5 29.0 0.00 0.00 0.00 54 990.6
20260503181235 15 248 25.7 37.0 0.00 0.00 0.00 51 990.6
20260503175732 15 210 20.9 30.6 0.00 0.00 0.00 52 990.9
20260503174230 15 265 9.7 27.4 0.00 0.00 0.00 53 990.9
20260503172729 15 228 8.0 20.9 0.00 0.00 0.00 52 991.1
20260503171226 14 272 16.1 27.4 0.00 0.00 0.00 53 991.3
20260503131139 10 242 14.5 22.5 0.00 0.00 0.00 58 992.9
20260503081047 5 190 0.0 3.2 0.00 0.00 0.00 73 993.0
20260503072539 5 122 1.6 6.4 0.00 0.00 0.00 66 993.2
20260503071036 5 174 3.2 6.4 0.00 0.00 0.00 64 993.3
20260503054019 6 187 4.8 14.5 0.00 0.00 0.00 54 994.2
20260503052517 5 175 6.4 12.9 0.00 0.00 0.00 54 994.6